Location: Unspecified
(43.8044°N, 11.0278°E)
Time: 07:42:58
(UTC+02:00)

CZ-3 Stage 3 - Visible Passes

Search period start: 20 April 2014 00:00
Search period end: 30 April 2014 00:00
Orbit: 476 x 34781 km, 30.6° (Epoch: 19 April)

Date Brightness Start Highest point End Pass type
(mag) Time Alt. Az. Time Alt. Az. Time Alt. Az.
22 Apr 5.4 03:43:50 33° SSW 03:48:00 37° S 06:12:02 10° SE visible
25 Apr 5.5 03:42:47 31° SSW 03:47:24 36° S 06:25:49 10° SSE visible
28 Apr 5.6 03:41:45 30° SSW 03:46:49 34° S 06:36:58 10° SSE visible
